Regional Weather Roundup
Issued by NWS San Angelo, TX

Home | Current Version | Previous Version | Text Only | Print | Product List | Glossary On
Versions: 1 2 3 4 5 6 7 8 9 10 11 12 13 14 15 16 17 18 19 20 21 22 23 24 25 26 27 28 29 30 31 32 33 34 35 36 37 38 39 40 41 42 43 44 45 46 47 48 49 50
000
ASUS44 KSJT 300810
RWRSJT
WEST CENTRAL TEXAS REGIONAL WEATHER ROUNDUP
NATIONAL WEATHER SERVICE SAN ANGELO TX
200 AM CST FRI JAN 30 2015

NOTE: "FAIR" INDICATES FEW OR NO CLOUDS BELOW 12,000 FEET WITH NO
SIGNIFICANT WEATHER AND/OR OBSTRUCTIONS TO VISIBILITY.

TXZ049-054-064>066-071>073-076>078-098-099-113-114-127-128-139-140-
154-155-168>170-300900
...LOCATIONS ACROSS WEST CENTRAL TEXAS...

CITY           SKY/WX    TMP DP  RH WIND       PRES   REMARKS
SAN ANGELO     CLOUDY    48  33  56 NE12      30.45R
ABILENE        CLOUDY    45  29  53 NE7       30.47S
DYESS AFB      CLOUDY    45  31  57 NE9       30.46F WCI  40
JUNCTION       CLOUDY    50  34  54 NE7       30.41F
SWEETWATER     CLOUDY    44  29  57 NE8       30.49S WCI  39
BROWNWOOD      CLOUDY    46  32  57 NE8       30.45F
COLEMAN        CLOUDY    46  33  59 NE10      30.45S
SONORA         CLOUDY    48  32  53 N12       30.45S
OZONA          FAIR      46  32  57 NE15      30.44S
BRADY          CLOUDY    48  34  57 NE10      30.41F
$$

TEXAS PANHANDLE/OKLAHOMA PANHANDLE

CITY           SKY/WX    TMP DP  RH WIND       PRES   REMARKS
AMARILLO       CLOUDY    37  28  70 SE6       30.48F WCI  32
BORGER         CLOUDY    41  26  55 S5        30.48F WCI  38
CANADIAN       MOCLDY    32  28  88 CALM      30.50F
DALHART        CLOUDY    38  30  73 S5        30.47F WCI  34
DUMAS          CLOUDY    36  27  71 SE3       30.47S
GUYMON         NOT AVBL
HEREFORD       CLOUDY    37  34  87 CALM      30.47F
PAMPA          PTSUNNY   36  26  67 SE7       30.48S WCI  30
PERRYTON         N/A     32  25  76 S3        30.48S
$$

SOUTHERN PANHANDLE/SOUTH PLAINS/ROLLING PLAINS

CITY           SKY/WX    TMP DP  RH WIND       PRES   REMARKS
LUBBOCK        CLOUDY    40  29  64 NE3       30.45F
SNYDER         CLOUDY   N/A N/A N/A NE9       30.48F
CHILDRESS      CLOUDY    43  28  55 CALM      30.51F
SEMINOLE       CLOUDY    43  27  53 E6        30.45F WCI  39
$$

PERMIAN BASIN

CITY           SKY/WX    TMP DP  RH WIND       PRES   REMARKS
MIDLAND        CLOUDY    46  28  49 NE16      30.44F WCI  39
ODESSA         CLOUDY    44  30  57 NE12      30.44F WCI  38
WINK           CLOUDY    45  30  55 NE7       30.43F
$$

FAR WEST/SOUTHWEST MOUNTAINS/TRANS PECOS

CITY           SKY/WX    TMP DP  RH WIND       PRES   REMARKS
ALPINE         CLOUDY    43  32  65 NE10      30.46S WCI  37
DRYDEN           N/A     54  34  46 NE13      30.38F
EL PASO        LGT RAIN  45  40  82 NE8       30.33F
FORT STOCKTON  CLOUDY    47  28  47 E12       30.42F
GUADALUPE PASS CLOUDY    35  32  88 NE40      30.36F WCI  20
MARFA          CLOUDY    43  32  65 NE10      30.39F WCI  37
PECOS          CLOUDY    48  34  57 NE5       30.44F
$$

DALLAS/FORT WORTH METROPLEX

CITY           SKY/WX    TMP DP  RH WIND       PRES   REMARKS
DFW AIRPORT    CLOUDY    47  31  53 NE12      30.47S
FTW MEACHAM    CLOUDY    48  32  53 N9        30.48R
DAL-EXECUTIVE  CLOUDY    50  29  44 NE14      30.47R
GRAND PRAIRIE  CLOUDY    49  32  52 N9G16     30.49S
ADDISON        CLOUDY    48  31  52 NE8       30.49S
MESQUITE       CLOUDY    47  31  53 N10       30.47S
LANCASTER      CLOUDY    47  30  50 NE13      30.48R
$$

NORTH CENTRAL TEXAS

CITY           SKY/WX    TMP DP  RH WIND       PRES   REMARKS
SHRMAN/DENISON MOSUNNY   40  33  74 NE5       30.50S WCI  37
GAINESVILLE    MOCLDY    42  31  66 N3        30.52R
BRIDGEPORT     CLOUDY    46  33  61 CALM      30.51S
DENTON         CLOUDY    43  32  65 N6        30.49S WCI  39
WAXAHACHIE     CLOUDY    47  33  57 N12G17    30.47S
GRANBURY       CLOUDY    48  33  56 N6        30.49F
$$

WESTERN NORTH TEXAS

CITY           SKY/WX    TMP DP  RH WIND       PRES   REMARKS
WICHITA FALLS  CLOUDY    41  33  73 N8        30.50S WCI  36
VERNON         CLOUDY    43  28  56 N3        30.52S
BRECKENRIDGE   CLOUDY    46  31  54 NE7       30.48F
COMANCHE       CLOUDY    46  33  59 N10G16    30.46S
$$

CENTRAL AND SOUTH CENTRAL TEXAS

CITY           SKY/WX    TMP DP  RH WIND       PRES   REMARKS
AUSTIN/BERGSTM CLOUDY    54  36  50 NE16      30.39S
WACO           MOCLDY    47  34  60 N9        30.44S
HILLSBORO      PTSUNNY   48  32  52 N9G18     30.45S
TEMPLE         MOCLDY    48  30  49 N10       30.42S
KILLEEN-GRAY   CLOUDY    49  33  52 N15       30.42S
FORT HOOD      CLOUDY    49  33  53 N13       30.42S
GEORGETOWN     CLOUDY    52  34  50 N14G21    30.41S
LAGO VISTA     DRIZZLE   52  35  52 NE8       30.40S
SAN MARCOS     MOCLDY    54  36  50 NE15      30.38S
NEW BRAUNFELS  PTCLDY    56  35  45 NE21      30.35S
RANDOLPH AFB   MOCLDY    56  35  43 N8G20     30.36S
SAN ANTONIO    MOCLDY    56  37  49 VRB6      30.36S
STINSON        MOCLDY    59  36  42 NE13G23   30.33S
PLEASANTON     NOT AVBL
LA GRANGE      MOCLDY    57  39  50 N13       30.35S
GIDDINGS       CLOUDY    54  35  48 N12G20    30.41S
$$

EAST TEXAS

CITY           SKY/WX    TMP DP  RH WIND       PRES   REMARKS
PARIS          PTCLDY    39  28  65 CALM      30.48S
CLARKSVILLE    NOT AVBL
TYLER          MOCLDY    47  32  56 N7        30.43S
LONGVIEW       PTCLDY    47  33  58 NE8       30.43S
PALESTINE      CLOUDY    47  34  60 N7        30.43R
NACOGDOCHES    CLEAR     46  34  61 N5        30.40R
$$

TEXAS HILL COUNTRY AND EDWARDS PLATEAU

CITY           SKY/WX    TMP DP  RH WIND       PRES   REMARKS
LLANO          CLOUDY    52  34  50 NE8G17    30.46F
HORSESHOE BAY  CLOUDY    52  33  47 N5        30.42F
KERRVILLE      CLOUDY    52  35  51 N9G16     30.40R
FREDERICKSBRG  LGT RAIN  48  35  62 NE10      30.40S
ROCKSPRINGS    NOT AVBL
HONDO          MOCLDY    57  38  48 NE15      30.37R
UVALDE         CLOUDY    55  42  61 CALM      30.36R
DEL RIO        CLOUDY    60  38  43 NE5       30.35R
$$

SOUTHEAST TEXAS

CITY           SKY/WX    TMP DP  RH WIND       PRES   REMARKS
COLLEGE STN    MOCLDY    52  36  54 N16       30.39R
CALDWELL       PTSUNNY   52  32  46 N14       30.42R
CROCKETT       PTSUNNY   52  37  58 NE10G16   30.43R
BRENHAM        PTCLDY    55  39  56 N8        30.38S
HUNTSVILLE     PTCLDY    51  36  56 N7        30.37S
CONROE         PTCLDY    55  39  54 N9        30.35R
HOUSTON BUSH   MOCLDY    58  42  55 N12       30.33R
HOUSTON HOBBY  PTCLDY    61  42  49 N18       30.32R
PERLAND        PTCLDY    63  44  50 NE16      30.33R
WHARTON        SUNNY     56  46  67 N10       30.33R
$$

THE UPPER TEXAS COAST

CITY           SKY/WX    TMP DP  RH WIND       PRES   REMARKS
ORANGE         SUNNY     56  46  68 N5        30.32S
PORT ARTHUR    PTCLDY    58  44  60 N13       30.30S
GALVESTON      PTCLDY    60  52  74 N14       30.31R
ANGLETON       CLEAR     56  51  84 N10       30.30R
BAY CITY       MOSUNNY   58  58 100 N7        30.30R
$$

TEXAS COASTAL BEND, RIO GRANDE PLAINS DEEP SOUTH TEXAS

CITY           SKY/WX    TMP DP  RH WIND       PRES   REMARKS
VICTORIA       CLEAR     56  49  77 N7        30.33R
BEEVILLE       CLOUDY    61  51  69 NE12      30.32S
ROCKPORT       PTCLDY    58  56  93 N7        30.30R FOG
PORT ARANSAS   SUNNY     60  59  98 CALM      30.29R
PORT LAVACA    SUNNY     59  51  75 N9        30.32R
CORPUS CHRISTI MOCLDY    58  57  97 N5        30.29S
KINGSVILLE NAS FOG       57  57 100 N5        30.29R VSB 1/2
COTULLA        CLOUDY    64  43  46 E20G26    30.33R
LAREDO         FAIR      62  59  90 E6        30.31R
BROWNSVILLE    MOCLDY    61  60  97 NE5       30.26S
PORT ISABEL    CLEAR     62  61  96 E5        30.25F FOG
HEBBRONVILLE   HVY RAIN  59  58  97 CALM      30.30S VSB 1/4
MCALLEN        PTCLDY    64  62  93 E7        30.27S
WESLACO        PTCLDY    62  60  93 CALM      30.26S
FALFURRIAS     CLOUDY    58  57  96 CALM      30.28S VSB 1/2
EDINBURG       FOG       58  56  92 N6        30.28R VSB 1
$$



USA.gov is the U.S. government's official web portal to all federal, state and local government web resources and services.